DJ0MDC Weather Reports


time (UTC)temp
F
wind
direction
speed
knots
gust
knots
rain 1hr
in
rain 24hr
in
rain mn
in
humidity
%
barometer
mb
20260506112429 67 269 0.9 0.9 0.00 0.00 0.00 63 1005.0
20260506111928 67 16 0.9 0.9 0.00 0.00 0.00 62 1005.0
20260506111427 67 7 0.0 0.9 0.00 0.00 0.00 63 1005.0
20260506110927 66 261 0.9 0.9 0.00 0.00 0.00 64 1005.0
20260506110428 66 49 0.0 0.9 0.00 0.00 0.00 68 1005.0
20260506105929 66 251 0.9 0.9 0.00 0.00 0.00 66 1005.0
20260506104940 65 283 0.9 0.9 0.00 0.00 0.00 67 1005.0
20260506104429 66 324 0.9 0.9 0.00 0.00 0.00 66 1005.0
20260506103929 65 29 0.0 0.0 0.00 0.00 0.00 66 1005.0
20260506103429 65 238 0.9 0.9 0.00 0.00 0.00 68 1005.0
20260506102930 65 37 0.9 0.9 0.00 0.00 0.00 68 1005.0
20260506102428 64 326 0.9 0.9 0.00 0.00 0.00 69 1005.0
20260506101927 64 351 0.0 0.0 0.00 0.00 0.00 70 1005.0
20260506101429 63 25 1.7 1.7 0.00 0.00 0.00 71 1006.0
20260506100927 63 206 0.9 0.9 0.00 0.00 0.00 74 1005.0
20260506100428 62 341 0.0 0.0 0.00 0.00 0.00 72 1005.0
20260506095927 62 36 0.0 0.0 0.00 0.00 0.00 75 1006.0
20260506095427 64 242 2.6 2.6 0.00 0.00 0.00 70 1006.0
20260506094928 64 81 1.7 1.7 0.00 0.00 0.00 72 1005.0
20260506094428 62 286 0.9 0.9 0.00 0.00 0.00 73 1005.0
20260506093925 62 318 0.0 0.0 0.00 0.00 0.00 72 1006.0
20260506093428 62 26 0.9 0.9 0.00 0.00 0.00 73 1006.0
20260506092926 61 293 0.0 0.9 0.00 0.00 0.00 75 1006.0
20260506092426 61 293 0.0 0.0 0.00 0.00 0.00 75 1006.0
20260506091928 61 258 1.7 1.7 0.00 0.00 0.00 76 1005.0
20260506091429 62 282 0.9 0.9 0.00 0.00 0.00 75 1006.0
20260506090929 61 45 0.0 0.0 0.00 0.00 0.00 77 1006.0
20260506090427 61 32 0.0 0.9 0.00 0.00 0.00 77 1005.0
20260506085927 61 259 0.9 0.9 0.00 0.00 0.00 75 1005.0
20260506085426 61 2 0.9 0.9 0.00 0.00 0.00 76 1006.0
20260506084925 61 295 0.9 1.7 0.00 0.00 0.00 76 1006.0
20260506084428 60 290 3.5 4.3 0.00 0.00 0.00 76 1005.0
20260506083927 61 256 2.6 2.6 0.00 0.00 0.00 76 1005.0
20260506083427 61 285 0.9 1.7 0.00 0.00 0.00 77 1006.0
20260506082927 60 40 0.9 0.9 0.00 0.00 0.00 76 1006.0
20260506082428 60 276 0.9 0.9 0.00 0.00 0.00 77 1006.0
20260506081927 60 284 0.9 1.7 0.00 0.00 0.00 77 1005.0
20260506081425 60 278 0.9 0.9 0.00 0.00 0.00 77 1006.0
20260506080927 60 89 0.0 0.0 0.00 0.00 0.00 77 1006.0
20260506080428 60 240 0.9 0.9 0.00 0.00 0.00 76 1006.0
20260506073428 60 70 0.0 0.0 0.00 0.00 0.00 77 1006.0
20260506072927 60 229 0.9 0.9 0.00 0.00 0.00 79 1006.0
20260506072426 60 185 0.9 0.9 0.00 0.00 0.00 78 1006.0
20260506071928 59 35 0.0 0.0 0.00 0.00 0.00 78 1006.0
20260506071427 60 182 0.0 0.9 0.00 0.00 0.00 78 1006.0
20260506070927 60 31 0.0 0.0 0.00 0.00 0.00 78 1006.0
20260506070426 59 255 0.9 1.7 0.00 0.00 0.00 79 1006.0
20260506062431 57 57 0.0 0.0 0.00 0.00 0.00 87 1006.0
20260506061928 55 41 0.0 0.0 0.00 0.00 0.00 90 1006.0
20260506061425 54 321 0.0 0.9 0.00 0.00 0.00 92 1006.0
20260506060927 53 1 0.0 0.9 0.00 0.00 0.00 94 1006.0
20260506060428 52 346 0.0 0.0 0.00 0.00 0.00 96 1006.0
20260506050927 49 29 0.0 0.0 0.00 0.00 0.00 99 1006.0
20260506050425 49 46 0.0 0.0 0.00 0.00 0.00 99 1006.0
20260506044925 48 23 0.0 0.0 0.00 0.00 0.00 99 1006.0
20260506044426 48 26 0.0 0.0 0.00 0.00 0.00 99 1006.0
20260506043925 47 23 0.0 0.0 0.00 0.00 0.00 99 1006.0
20260506043426 47 23 0.0 0.0 0.00 0.00 0.00 99 1006.0
20260506042926 47 22 0.0 0.0 0.00 0.00 0.00 99 1006.0
20260506042427 47 22 0.0 0.0 0.00 0.00 0.00 99 1007.0
20260506041927 47 42 0.0 0.0 0.00 0.00 0.00 99 1006.0
20260506041426 47 27 0.0 0.0 0.00 0.00 0.00 99 1006.0
20260506040927 47 31 0.0 0.0 0.00 0.00 0.00 99 1007.0
20260506040425 47 22 0.0 0.0 0.00 0.00 0.00 99 1006.0
20260506035927 46 22 0.0 0.0 0.00 0.00 0.00 99 1006.0
20260506035427 46 22 0.0 0.0 0.00 0.00 0.00 99 1006.0
20260506034925 46 23 0.0 0.0 0.00 0.00 0.00 99 1006.0
20260506034426 47 23 0.0 0.0 0.00 0.00 0.00 99 1007.0
20260506033925 47 23 0.0 0.0 0.00 0.00 0.00 99 1006.0
20260506033427 47 22 0.0 0.0 0.00 0.00 0.00 99 1007.0
20260506032931 47 23 0.0 0.0 0.00 0.00 0.00 99 1007.0
20260506032427 47 18 0.0 0.0 0.00 0.00 0.00 99 1007.0
20260506031927 47 20 0.0 0.0 0.00 0.00 0.00 99 1007.0
20260506031427 47 20 0.0 0.0 0.00 0.00 0.00 99 1006.0
20260506030926 48 21 0.0 0.0 0.00 0.00 0.00 99 1007.0
20260506030427 48 1 0.0 0.0 0.00 0.00 0.00 99 1007.0
20260506025925 48 2 0.0 0.0 0.00 0.00 0.00 99 1007.0
20260506025427 48 6 0.0 0.0 0.00 0.00 0.00 99 1007.0
20260506024926 48 26 0.0 0.0 0.00 0.00 0.00 99 1007.0
20260506024425 48 16 0.0 0.0 0.00 0.00 0.00 99 1007.0
20260506023925 48 21 0.0 0.0 0.00 0.00 0.00 99 1007.0
20260506023426 48 16 0.0 0.9 0.00 0.00 0.00 99 1006.0
20260506022926 48 89 0.0 0.0 0.00 0.00 0.00 99 1007.0
20260506022427 48 19 0.0 0.0 0.00 0.00 0.00 99 1007.0
20260506021927 48 17 0.0 0.0 0.00 0.00 0.00 99 1007.0
20260506021425 48 17 0.0 0.0 0.00 0.00 0.00 99 1007.0
20260506020927 49 17 0.0 0.0 0.00 0.00 0.00 99 1007.0
20260506020427 48 34 0.0 0.0 0.00 0.00 0.00 99 1007.0
20260506015926 49 21 0.0 0.0 0.00 0.00 0.00 99 1007.0
20260506015426 49 46 0.9 0.9 0.00 0.00 0.00 99 1007.0
20260506014926 49 25 0.0 0.0 0.00 0.00 0.00 99 1007.0
20260506014428 49 345 0.0 0.0 0.00 0.00 0.00 99 1007.0
20260506013926 49 25 0.0 0.0 0.00 0.00 0.00 99 1007.0
20260506013426 49 25 0.0 0.0 0.00 0.00 0.00 99 1007.0
20260506012926 49 32 0.0 0.0 0.00 0.00 0.00 99 1007.0
20260506012425 49 24 0.0 0.0 0.00 0.00 0.00 99 1007.0
20260506011925 49 6 0.0 0.9 0.00 0.00 0.00 99 1006.0
20260506011425 49 23 0.0 0.0 0.00 0.00 0.00 99 1007.0
20260506010925 49 30 0.0 0.0 0.00 0.00 0.00 99 1007.0
20260506010428 48 62 0.0 0.0 0.00 0.00 0.00 99 1006.0
20260506005925 48 21 0.0 0.0 0.00 0.00 0.00 99 1006.0
20260506005427 48 21 0.0 0.0 0.00 0.00 0.00 99 1007.0
20260506004927 48 20 0.0 0.0 0.00 0.00 0.00 99 1007.0
20260506004427 48 20 0.0 0.0 0.00 0.00 0.00 98 1007.0
20260506003925 49 21 0.0 0.0 0.00 0.00 0.00 99 1007.0
20260506003427 49 20 0.0 0.0 0.00 0.00 0.00 98 1007.0
20260506002925 49 20 0.0 0.0 0.00 0.00 0.00 98 1007.0
20260506002427 49 18 0.0 0.0 0.00 0.00 0.00 98 1007.0
20260506001925 49 20 0.0 0.0 0.00 0.00 0.00 98 1007.0
20260506001425 49 20 0.0 0.0 0.00 0.00 0.00 98 1007.0
20260506000925 49 20 0.0 0.0 0.00 0.00 0.00 97 1007.0
20260506000425 50 20 0.0 0.0 0.00 0.00 0.00 97 1007.0
20260505235925 50 18 0.0 0.0 0.00 0.00 0.00 97 1007.0
20260505235427 50 18 0.0 0.0 0.00 0.00 0.00 97 1007.0
20260505234926 50 18 0.0 0.0 0.00 0.00 0.00 96 1007.0
20260505234425 50 18 0.0 0.0 0.00 0.00 0.00 96 1007.0
20260505233926 50 351 0.0 0.0 0.00 0.00 0.00 96 1007.0
20260505233427 51 347 0.0 0.0 0.00 0.00 0.00 96 1007.0
20260505232926 51 56 0.0 0.0 0.00 0.00 0.00 95 1007.0
20260505232425 51 56 0.0 0.0 0.00 0.00 0.00 95 1007.0
20260505231926 52 56 0.0 0.0 0.00 0.00 0.00 95 1007.0
20260505231427 52 56 0.0 0.0 0.00 0.00 0.00 94 1007.0
20260505230926 52 56 0.0 0.0 0.00 0.00 0.00 94 1007.0
20260505230427 52 54 0.0 0.0 0.00 0.00 0.00 95 1007.0
20260505225927 52 49 0.0 0.0 0.00 0.00 0.00 95 1008.0
20260505225425 52 39 0.0 0.0 0.00 0.00 0.00 96 1008.0
20260505224925 52 46 0.0 0.0 0.00 0.00 0.00 95 1008.0
20260505224425 52 46 0.0 0.0 0.00 0.00 0.00 95 1008.0
20260505223926 52 46 0.0 0.0 0.00 0.00 0.00 95 1007.0
20260505223427 52 46 0.0 0.0 0.00 0.00 0.00 94 1007.0
20260505222925 53 46 0.0 0.0 0.00 0.00 0.00 93 1007.0
20260505222427 53 46 0.0 0.0 0.00 0.00 0.00 93 1007.0
20260505221925 53 68 0.0 0.0 0.00 0.00 0.00 93 1008.0
20260505221427 53 68 0.0 0.0 0.00 0.00 0.00 93 1007.0
20260505220927 53 39 0.0 0.0 0.00 0.00 0.00 93 1007.0
20260505220425 53 79 0.0 0.0 0.00 0.00 0.00 92 1007.0
20260505215928 53 80 0.0 0.0 0.00 0.00 0.00 91 1007.0
20260505215427 54 60 0.0 0.0 0.00 0.00 0.00 91 1007.0
20260505214927 54 73 0.0 0.0 0.00 0.00 0.00 90 1007.0
20260505214427 54 249 0.0 0.0 0.00 0.00 0.00 89 1007.0
20260505213926 55 254 0.0 0.9 0.00 0.00 0.00 88 1007.0
20260505213427 55 168 0.0 0.0 0.00 0.00 0.00 88 1007.0
20260505212926 55 83 0.0 0.0 0.00 0.00 0.00 88 1007.0
20260505212427 55 255 0.0 0.9 0.00 0.00 0.00 89 1007.0
20260505211925 55 246 0.0 0.9 0.00 0.00 0.00 90 1007.0
20260505211427 54 315 0.0 0.0 0.00 0.00 0.00 94 1007.0
20260505210928 54 341 0.0 0.9 0.00 0.00 0.00 94 1007.0
20260505210429 54 31 0.0 0.0 0.00 0.00 0.00 94 1007.0
20260505205927 54 30 0.0 0.0 0.00 0.00 0.00 93 1007.0
20260505205427 55 49 0.0 0.0 0.00 0.00 0.00 93 1007.0
20260505204929 55 46 0.0 0.0 0.00 0.00 0.00 93 1007.0
20260505204429 55 337 0.0 0.0 0.00 0.00 0.00 93 1007.0
20260505203927 55 24 0.0 0.0 0.00 0.00 0.00 94 1007.0
20260505203427 55 318 0.0 0.0 0.00 0.00 0.00 94 1007.0
20260505202926 55 63 0.0 0.0 0.00 0.00 0.00 94 1007.0
20260505202427 55 44 0.0 0.0 0.00 0.00 0.00 93 1007.0
20260505201927 55 44 0.0 0.0 0.00 0.00 0.00 93 1007.0
20260505201429 55 43 0.0 0.0 0.00 0.00 0.00 92 1007.0
20260505200927 55 44 0.0 0.0 0.00 0.00 0.00 92 1007.0
20260505200428 55 43 0.0 0.0 0.00 0.00 0.00 92 1007.0
20260505195931 56 13 0.0 0.0 0.00 0.00 0.00 92 1007.0
20260505195429 56 16 0.0 0.0 0.00 0.00 0.00 92 1007.0
20260505194929 56 346 0.0 0.0 0.00 0.00 0.00 92 1007.0
20260505194426 56 287 0.0 0.0 0.00 0.00 0.00 91 1007.0
20260505193927 56 273 0.9 0.9 0.00 0.00 0.00 91 1007.0
20260505193427 56 275 0.9 1.7 0.00 0.00 0.00 91 1007.0
20260505192927 56 290 1.7 1.7 0.00 0.00 0.00 91 1007.0
20260505192427 56 311 0.9 1.7 0.00 0.00 0.00 92 1006.0
20260505191928 56 281 0.9 0.9 0.00 0.00 0.00 91 1007.0
20260505191427 56 267 0.9 0.9 0.00 0.00 0.00 91 1007.0
20260505190926 57 314 0.0 0.0 0.00 0.00 0.00 91 1006.0
20260505190426 57 276 1.7 1.7 0.00 0.00 0.00 91 1007.0
20260505185928 57 269 1.7 2.6 0.00 0.00 0.00 91 1006.0
20260505185428 57 251 1.7 2.6 0.00 0.00 0.00 90 1007.0
20260505184928 57 273 0.9 1.7 0.00 0.00 0.00 90 1006.0
20260505184427 57 298 2.6 4.3 0.00 0.00 0.00 90 1006.0
20260505183925 57 267 1.7 1.7 0.00 0.00 0.00 91 1006.0
20260505183429 57 299 1.7 1.7 0.00 0.00 0.00 91 1006.0
20260505182929 57 294 0.9 1.7 0.00 0.00 0.00 91 1006.0
20260505182427 57 336 0.0 0.0 0.00 0.00 0.00 90 1006.0
20260505181440 58 258 0.9 0.9 0.00 0.00 0.00 89 1006.0
20260505180927 57 326 0.9 1.7 0.00 0.00 0.00 89 1006.0
20260505180428 57 332 0.9 1.7 0.00 0.00 0.00 90 1006.0
20260505175925 57 240 0.0 0.0 0.00 0.00 0.00 90 1006.0
20260505175426 58 269 0.0 0.9 0.00 0.00 0.00 90 1006.0
20260505174927 57 354 0.0 0.0 0.00 0.00 0.00 90 1006.0
20260505174428 57 336 0.0 0.0 0.00 0.00 0.00 90 1006.0
20260505173927 57 24 0.0 0.0 0.00 0.00 0.00 90 1006.0
20260505173425 57 308 0.0 0.9 0.00 0.00 0.00 90 1006.0
20260505172927 57 235 0.0 0.0 0.00 0.00 0.00 89 1006.0
20260505172428 57 268 2.6 2.6 0.00 0.00 0.00 89 1006.0
20260505171926 57 294 1.7 2.6 0.00 0.00 0.00 88 1006.0
20260505171426 58 255 0.9 1.7 0.00 0.00 0.00 89 1006.0
20260505170927 58 276 1.7 1.7 0.00 0.00 0.00 88 1006.0
20260505170426 58 217 1.7 1.7 0.00 0.00 0.00 87 1006.0
20260505165928 59 288 1.7 1.7 0.00 0.00 0.00 87 1006.0
20260505165427 59 258 1.7 2.6 0.00 0.00 0.00 88 1006.0
20260505164929 59 279 2.6 2.6 0.00 0.00 0.00 87 1006.0
20260505164431 59 284 2.6 2.6 0.00 0.00 0.00 87 1006.0
20260505163926 58 307 3.5 5.2 0.00 0.00 0.00 87 1006.0
20260505163425 58 250 2.6 2.6 0.00 0.00 0.00 87 1006.0
20260505162928 58 265 2.6 2.6 0.00 0.00 0.00 87 1006.0
20260505162428 58 310 3.5 5.2 0.00 0.00 0.00 87 1006.0
20260505161929 58 253 2.6 4.3 0.00 0.00 0.00 87 1006.0
20260505161425 58 275 3.5 5.2 0.00 0.00 0.00 89 1006.0
20260505160928 58 273 0.9 1.7 0.00 0.00 0.00 90 1006.0
20260505160426 58 286 0.9 1.7 0.00 0.00 0.00 90 1006.0
20260505152925 59 307 4.3 7.8 0.00 0.00 0.00 90 1006.0
20260505152428 59 268 4.3 7.0 0.00 0.00 0.00 89 1006.0
20260505151928 59 299 6.1 9.6 0.00 0.00 0.00 87 1006.0
20260505151428 59 320 5.2 7.0 0.00 0.00 0.00 86 1006.0
20260505150931 60 241 6.1 9.6 0.00 0.00 0.00 85 1006.0
20260505150427 60 230 5.2 7.0 0.00 0.00 0.00 86 1006.0
20260505140429 62 319 1.7 1.7 0.00 0.00 0.00 80 1006.0
20260505124929 71 338 0.0 0.0 0.00 0.00 0.00 55 1006.0
20260505124425 71 238 0.9 0.9 0.00 0.00 0.00 52 1006.0
20260505123928 71 157 0.9 0.9 0.00 0.00 0.00 56 1006.0
20260505123428 71 241 1.7 1.7 0.00 0.00 0.00 52 1006.0
20260505122926 70 347 0.9 0.9 0.00 0.00 0.00 54 1006.0
20260505122427 71 330 0.9 1.7 0.00 0.00 0.00 53 1006.0
20260505121927 71 258 1.7 1.7 0.00 0.00 0.00 50 1006.0
20260505121427 71 277 0.9 0.9 0.00 0.00 0.00 53 1006.0
20260505120928 71 221 3.5 4.3 0.00 0.00 0.00 51 1006.0
20260505120425 71 224 2.6 2.6 0.00 0.00 0.00 52 1006.0
20260505115925 70 311 0.0 0.9 0.00 0.00 0.00 52 1006.0
20260505115426 71 329 1.7 1.7 0.00 0.00 0.00 53 1006.0
20260505114927 70 243 1.7 1.7 0.00 0.00 0.00 52 1006.0
20260505114425 70 281 1.7 1.7 0.00 0.00 0.00 53 1006.0
20260505113927 70 267 0.9 0.9 0.00 0.00 0.00 51 1006.0
20260505113431 71 280 1.7 2.6 0.00 0.00 0.00 51 1006.0
20260505112928 71 261 1.7 1.7 0.00 0.00 0.00 53 1006.0